Location: Bli��� Lhota
(48.7570°N, 14.0120°E)
Time: 08:56:28
(UTC+00:00)

Cosmos 2034 Rocket - Pass Details

Date: 18 September 2020
Orbit: 957 x 1002 km, 82.9° (Epoch: 24 October)

Event Time Altitude Azimuth Distance (km) Brightness Sun altitude
Rises 18:54:06 0° 183° (S) 3,712 6.8 -17.5°
Reaches altitude 10° 18:56:37 10° 183° (S) 2,766 6.2 -17.9°
Maximum altitude 19:02:59 82° 97° (E) 1,016 4.0 -18.9°
Drops below altitude 10° 19:09:22 10° 11° (N) 2,770 6.6 -19.8°
Sets 19:11:53 0° 11° (N) 3,718 7.3 -20.2°
